Wind_Speed
33 31 32 36 39 41 37 35 31 29 29 30 28 25 23 24 25 22 20 22 25 27 23 23 22 19 16 16 18 17 16 14 12 10 8 8 7 3 3 5 8 9 9 11 10 12 14 15 16
38 37 35 38 45 43 38 36 35 32 33 27 28 28 25 24 26 22 24 25 26 25 25 24 23 20 17 16 18 17 16 14 13 11 8 7 5 2 2 5 7 8 7 10 10 13 14 14 15
41 43 42 43 43 47 36 36 34 38 36 32 29 29 27 27 26 24 24 24 27 26 24 26 25 22 19 17 17 17 16 15 13 12 10 7 5 2 1 5 7 8 8 9 9 11 13 13 14
47 46 50 49 45 29 38 37 40 43 41 37 31 29 26 27 32 24 25 26 25 25 28 26 23 21 20 18 18 18 16 14 12 11 9 7 5 3 2 5 7 8 7 8 10 11 12 14 15
53 52 53 53 48 34 36 42 41 44 43 43 38 30 27 32 26 24 24 23 26 26 28 26 24 21 20 18 18 18 16 13 12 11 9 8 6 4 5 6 7 8 7 8 10 12 14 15 17
58 58 58 59 51 40 37 39 43 45 47 45 40 36 34 34 28 26 22 22 26 27 32 28 23 20 18 19 19 19 17 14 13 12 11 9 8 7 7 8 8 8 8 10 11 14 15 16 16
63 63 62 58 56 48 41 41 47 45 48 48 46 40 34 38 33 28 24 23 24 27 30 27 22 20 19 20 20 20 18 16 14 14 12 10 9 9 9 9 9 8 9 11 12 14 15 16 17
67 68 68 64 60 55 47 47 43 49 50 49 50 45 37 36 39 31 26 25 27 27 28 27 25 21 20 20 21 20 19 18 15 15 14 12 13 12 11 13 12 11 11 13 14 15 16 17 19
69 73 73 66 64 60 53 53 48 49 52 55 53 50 42 38 34 31 28 28 29 28 29 29 27 24 21 21 21 20 20 19 17 17 16 15 16 15 15 15 15 14 14 15 16 18 20 20 22
74 76 73 69 67 66 60 57 53 49 53 55 58 54 47 43 41 37 31 28 31 30 29 28 26 23 21 20 22 22 22 21 19 19 17 18 19 18 18 18 18 19 17 19 21 22 23 24 25
70 77 72 72 71 70 64 61 59 54 53 56 56 54 50 47 42 42 39 33 32 31 29 30 29 26 24 22 22 24 24 23 23 22 20 21 21 21 20 21 22 23 23 24 26 27 27 28 28
51 66 73 75 75 70 68 65 65 59 52 56 59 57 55 52 48 45 40 41 36 34 30 32 31 29 26 25 24 27 28 26 25 23 23 23 24 22 22 25 26 27 28 30 31 31 32 32 33
50 47 67 74 73 68 71 69 68 62 58 58 61 60 54 53 50 47 45 46 40 37 35 33 35 32 30 29 27 29 27 28 25 26 25 25 25 25 26 27 30 32 34 35 35 36 37 36 38
52 55 55 67 71 69 70 72 74 67 60 58 55 62 58 54 50 46 44 44 43 36 36 37 41 39 36 32 31 29 29 28 27 27 26 26 27 28 29 32 34 37 39 41 40 42 42 39 41
50 55 57 57 65 67 70 76 72 66 62 60 58 60 62 56 52 46 45 43 40 37 35 37 40 40 35 33 31 30 29 29 28 26 25 26 30 30 33 36 39 41 44 46 46 48 49 47 47
50 53 58 53 60 62 68 69 70 68 66 62 59 58 61 59 53 48 46 42 36 34 36 42 41 40 37 34 32 30 28 27 25 25 25 28 30 33 37 41 46 47 50 53 57 59 60 53 52
56 54 55 55 52 60 64 67 76 70 66 62 60 60 60 61 55 51 50 42 38 36 37 40 39 41 40 34 30 27 26 26 23 22 27 30 33 37 40 44 47 50 55 62 65 65 63 63 51
55 55 54 57 55 58 59 69 75 72 67 62 60 61 60 60 58 53 50 51 44 39 41 45 45 43 41 32 27 27 26 27 27 25 29 33 36 38 44 49 49 55 56 61 62 64 67 62 60
45 46 50 53 55 55 61 67 74 72 65 62 60 59 60 58 58 56 50 50 50 41 40 44 55 50 28 28 31 30 32 26 20 28 33 35 35 37 43 41 41 41 43 45 52 62 54 60 65
39 33 37 47 53 56 62 68 73 70 65 62 59 59 58 57 57 56 51 49 49 48 46 45 32 32 32 33 33 35 36 29 25 30 34 39 37 41 46 40 38 42 43 55 55 55 53 55 58
27 31 32 34 48 56 62 66 74 67 64 63 61 58 56 55 53 54 52 48 44 41 40 38 41 41 41 38 40 27 24 31 30 33 38 38 37 37 34 34 36 42 48 54 48 42 41 40 40
19 23 21 30 37 54 60 59 68 62 64 62 59 56 54 53 50 50 52 47 44 41 39 33 32 35 40 37 37 28 28 31 36 40 35 32 31 35 36 38 40 41 47 50 48 45 44 43 42
28 28 18 30 37 37 51 42 56 60 63 61 58 54 53 51 49 45 49 45 43 43 41 39 29 32 37 36 30 32 36 36 33 29 27 28 31 35 37 40 38 44 51 50 45 38 32 33 28
28 22 22 25 28 32 36 46 37 59 57 57 55 52 50 51 49 44 48 44 46 48 48 38 35 36 38 38 36 41 37 29 26 26 29 28 30 34 38 40 38 40 39 45 37 38 28 22 20
12 15 21 21 26 24 32 41 21 52 53 53 54 51 48 49 48 44 45 50 49 47 45 35 37 36 37 40 42 37 24 20 19 22 25 30 28 32 37 37 36 37 39 39 34 31 36 43 27
27 18 21 19 23 23 33 41 33 51 51 51 52 51 47 46 46 44 43 47 51 49 44 42 41 39 40 37 27 22 22 25 28 28 29 27 31 33 35 36 36 36 41 41 38 39 44 30 26
15 9 19 16 24 20 34 31 43 45 47 50 50 48 44 44 44 45 44 42 42 43 43 45 45 41 34 26 22 23 26 28 31 32 30 29 35 40 41 36 43 37 43 37 38 43 28 29 25
26 15 21 21 19 18 27 31 30 39 44 47 48 48 46 45 44 43 42 41 40 35 34 32 33 30 27 24 24 27 28 31 33 35 37 36 41 46 42 43 36 39 44 46 39 35 28 27 27
27 23 24 23 29 14 22 22 34 38 40 44 44 45 45 45 43 42 41 40 37 36 32 31 28 28 27 27 29 28 31 34 38 40 40 42 46 48 38 37 43 49 52 34 24 23 23 27 33
18 18 16 9 23 21 21 24 30 36 38 40 40 41 43 43 43 41 39 39 36 33 31 29 29 30 30 29 28 31 34 37 39 44 44 46 33 46 38 49 54 44 22 18 20 25 28 32 32
Wind_Direction
249 242 238 232 229 226 220 215 216 221 226 220 217 219 214 218 222 228 223 212 205 193 188 185 178 174 176 183 192 188 179 171 161 159 158 127 120 99 54 21 11 13 14 12 15 20 27 31 36
249 245 238 236 230 225 221 218 218 222 227 222 220 218 220 220 224 225 217 213 206 199 186 188 184 179 183 188 195 191 185 178 169 167 156 141 131 117 19 3 357 0 5 8 12 16 20 22 20
241 247 241 236 234 227 220 222 220 223 228 225 224 219 220 216 224 222 224 223 209 203 195 190 189 181 184 192 201 200 191 182 176 168 158 161 160 155 353 334 339 348 355 8 8 10 14 11 2
237 239 244 242 237 230 224 223 222 223 226 229 223 226 222 228 213 216 226 219 214 208 202 191 194 189 188 191 204 209 200 191 183 173 169 175 187 211 272 309 326 334 344 354 359 355 350 344 342
236 236 240 244 241 224 223 222 218 224 226 228 226 223 221 195 207 220 223 217 214 205 203 190 193 197 198 196 208 215 212 201 192 184 185 191 208 237 266 294 314 325 331 332 337 339 335 332 332
238 236 236 242 241 232 224 222 220 224 226 227 227 224 218 203 213 218 226 224 205 204 196 190 191 200 202 204 210 217 218 209 200 196 201 205 221 247 271 291 313 319 313 322 327 324 322 324 327
238 236 236 235 238 231 226 221 220 221 226 228 227 226 224 203 212 213 221 225 209 199 198 184 187 200 207 210 215 218 222 217 207 208 208 212 233 249 266 288 300 302 300 312 315 315 321 322 318
237 236 235 231 232 230 225 226 220 218 225 226 228 226 217 225 207 214 217 222 212 198 196 193 191 197 207 214 221 222 226 224 216 216 218 225 237 248 260 271 284 293 296 299 302 307 312 314 317
237 235 235 233 230 229 223 225 219 219 217 225 228 225 220 217 215 207 219 218 214 208 199 198 199 201 209 217 222 225 228 229 223 223 228 237 243 248 257 267 280 283 286 294 298 299 308 310 310
236 235 234 233 229 228 222 222 221 220 217 223 228 226 222 217 218 212 225 211 219 209 205 202 202 203 212 224 228 228 227 228 230 232 237 243 248 252 260 267 275 283 286 288 289 294 302 306 307
235 234 233 233 229 227 221 218 221 220 219 218 226 228 224 219 214 214 225 217 212 212 212 210 208 209 212 221 232 235 233 231 235 238 243 245 252 258 264 275 279 284 286 286 287 292 295 295 302
242 236 234 232 229 224 221 219 218 219 216 217 219 224 222 221 216 217 217 226 228 220 225 226 219 216 216 221 228 236 240 240 242 246 248 252 255 261 270 274 278 283 285 285 286 288 290 293 294
241 239 235 233 231 225 221 217 216 216 216 218 216 223 224 223 220 218 221 225 229 226 230 237 234 223 224 226 229 234 239 244 247 250 253 255 262 271 272 275 281 284 284 284 285 287 288 291 292
241 237 238 230 230 227 220 216 218 214 217 217 216 216 222 223 221 218 224 231 232 232 235 240 230 229 225 227 230 235 241 245 248 251 256 264 272 275 278 279 280 281 283 283 284 284 284 285 289
241 238 236 233 226 226 220 215 211 214 216 216 216 213 218 221 222 215 221 228 232 229 237 233 231 229 226 229 232 238 241 246 250 258 267 274 276 280 282 282 281 282 283 283 284 282 282 286 283
241 237 232 232 224 221 220 209 212 215 217 215 214 215 214 219 219 214 216 225 226 233 243 238 227 227 226 229 233 239 245 248 256 264 273 277 280 283 285 290 289 285 286 284 287 285 284 283 276
242 238 232 229 229 221 219 207 215 216 215 213 212 214 214 216 218 217 214 220 227 233 236 231 229 231 229 227 233 237 247 252 252 261 269 275 280 281 284 285 285 283 282 284 290 288 286 288 267
241 239 233 229 228 220 214 210 213 216 211 212 212 211 214 214 217 217 215 219 225 233 234 223 228 227 224 222 230 234 232 235 239 251 264 271 275 280 282 282 283 278 281 275 271 277 284 280 273
229 229 230 228 220 216 211 209 213 214 211 210 212 210 213 213 215 218 217 219 224 228 235 243 227 227 249 239 234 229 230 239 266 268 278 286 289 294 292 317 310 306 302 298 286 287 296 279 281
218 223 222 222 217 213 209 208 210 210 209 208 211 210 209 213 213 218 220 221 224 227 238 253 246 255 239 229 228 232 243 269 271 278 289 290 289 292 303 302 304 304 298 307 297 288 286 282 273
217 213 221 218 212 208 208 206 208 207 207 207 209 210 207 211 214 216 219 222 223 230 236 240 241 244 248 234 242 259 263 266 274 283 291 294 299 298 305 304 302 308 300 316 306 285 286 275 261
188 191 186 201 201 205 204 206 206 205 206 207 209 211 207 208 211 213 217 221 223 228 233 235 235 243 241 246 246 267 266 272 285 287 292 295 296 300 305 307 305 305 302 317 296 282 290 276 259
166 176 188 200 195 194 201 194 212 204 204 204 207 207 207 208 211 210 212 214 216 221 220 223 227 239 238 244 250 254 276 283 284 287 290 299 298 300 301 304 306 302 306 307 299 285 279 265 264
166 172 176 183 186 195 202 191 213 203 201 204 205 207 205 207 210 209 203 207 217 222 221 218 223 231 235 245 250 273 285 282 286 288 293 295 294 301 299 302 302 300 304 291 289 282 284 287 298
166 144 157 165 185 193 193 183 196 197 198 198 201 205 205 206 209 211 207 209 216 226 235 239 243 234 241 250 264 275 276 289 295 299 296 304 293 291 291 291 292 299 291 286 276 263 297 316 283
149 151 140 176 173 183 187 181 198 194 193 194 197 203 205 206 207 209 212 211 218 223 231 237 241 248 255 264 258 263 274 287 295 298 299 290 280 276 276 277 279 285 277 278 279 275 289 281 278
152 171 156 148 163 191 181 182 193 194 193 193 196 199 202 205 208 209 211 217 220 223 228 234 241 248 249 245 252 266 280 287 293 294 291 286 274 268 270 266 269 265 267 271 276 280 270 269 268
167 168 157 142 159 166 176 177 203 194 190 193 194 196 200 204 208 207 211 216 221 224 228 231 234 238 239 242 255 268 280 286 291 292 293 288 274 273 272 267 260 259 263 266 269 271 263 274 283
151 171 154 164 152 173 177 179 184 191 192 190 194 195 198 204 209 210 211 217 221 224 225 227 231 231 236 246 256 271 281 289 294 291 288 276 276 278 259 268 260 257 253 257 259 270 274 279 287
158 159 160 165 161 159 163 189 182 186 191 192 195 198 198 203 209 211 212 216 219 218 218 220 223 232 241 252 266 275 281 288 289 286 283 274 262 278 272 263 254 255 258 261 275 279 284 287 289
Height
5862 5865 5868 5871 5874 5873 5878 5882 5886 5887 5889 5890 5893 5895 5899 5901 5901 5905 5905 5907 5907 5908 5910 5911 5911 5912 5914 5917 5919 5919 5918 5918 5919 5921 5922 5922 5921 5923 5924 5924 5923 5922 5922 5921 5919 5917 5916 5915 5914
5856 5858 5861 5862 5864 5867 5875 5880 5881 5884 5883 5887 5889 5892 5895 5897 5898 5900 5902 5904 5905 5906 5907 5910 5911 5912 5913 5916 5918 5918 5918 5919 5918 5919 5921 5922 5922 5923 5924 5924 5923 5922 5921 5920 5919 5918 5917 5916 5915
5850 5851 5853 5852 5855 5859 5872 5876 5880 5878 5880 5883 5886 5888 5891 5893 5895 5896 5899 5901 5902 5904 5906 5908 5910 5910 5912 5914 5917 5918 5918 5919 5918 5918 5919 5921 5922 5922 5923 5923 5922 5921 5920 5919 5919 5918 5917 5916 5915
5840 5843 5842 5843 5849 5865 5868 5871 5872 5872 5874 5877 5882 5884 5888 5888 5891 5894 5897 5898 5900 5902 5904 5906 5909 5911 5911 5913 5916 5917 5917 5918 5917 5918 5918 5919 5920 5920 5921 5922 5921 5920 5919 5918 5917 5916 5916 5915 5914
5828 5831 5833 5834 5843 5858 5859 5864 5866 5867 5870 5872 5877 5880 5883 5885 5888 5891 5893 5895 5897 5899 5901 5904 5907 5910 5911 5912 5915 5916 5916 5916 5916 5917 5917 5918 5919 5919 5920 5920 5920 5920 5919 5917 5916 5916 5915 5914 5913
5814 5819 5822 5826 5836 5850 5853 5857 5860 5861 5863 5866 5872 5876 5878 5880 5884 5888 5891 5893 5894 5896 5898 5901 5904 5908 5909 5911 5912 5914 5915 5914 5915 5915 5916 5917 5918 5919 5919 5920 5920 5919 5918 5917 5916 5915 5914 5913 5911
5801 5805 5811 5819 5826 5838 5846 5846 5849 5855 5857 5861 5864 5870 5874 5874 5880 5884 5887 5890 5891 5894 5897 5898 5901 5905 5906 5908 5910 5911 5911 5912 5913 5914 5914 5916 5917 5917 5918 5918 5918 5916 5915 5915 5913 5912 5911 5910 5908
5786 5789 5794 5806 5814 5826 5835 5837 5843 5846 5849 5855 5857 5864 5870 5869 5873 5879 5884 5887 5889 5891 5894 5896 5898 5900 5903 5905 5907 5908 5908 5909 5911 5912 5913 5914 5914 5915 5915 5915 5914 5914 5913 5911 5910 5909 5908 5906 5905
5771 5772 5780 5794 5804 5813 5823 5826 5832 5836 5841 5843 5850 5856 5864 5867 5867 5873 5880 5883 5886 5889 5890 5893 5895 5897 5899 5902 5904 5905 5906 5907 5909 5910 5911 5911 5911 5911 5911 5911 5911 5910 5909 5908 5907 5906 5905 5904 5902
5753 5758 5771 5780 5789 5797 5808 5815 5822 5827 5833 5837 5841 5848 5856 5862 5865 5869 5875 5879 5882 5885 5888 5889 5891 5893 5896 5899 5901 5902 5903 5905 5906 5907 5908 5908 5908 5908 5908 5907 5908 5908 5907 5905 5903 5902 5901 5901 5899
5740 5744 5759 5761 5770 5782 5796 5803 5810 5816 5822 5831 5835 5842 5849 5855 5860 5865 5870 5875 5878 5881 5884 5886 5888 5890 5892 5895 5897 5899 5900 5901 5903 5904 5905 5905 5905 5905 5905 5906 5906 5905 5905 5902 5899 5898 5897 5895 5893
5722 5733 5738 5744 5751 5768 5781 5789 5796 5805 5817 5818 5824 5831 5838 5846 5854 5860 5864 5868 5872 5876 5881 5883 5884 5886 5888 5890 5892 5894 5896 5898 5900 5901 5901 5902 5902 5902 5903 5903 5902 5901 5900 5897 5895 5893 5892 5891 5888
5713 5721 5718 5727 5740 5754 5764 5777 5786 5795 5802 5807 5818 5825 5833 5839 5846 5853 5856 5861 5867 5870 5875 5879 5881 5883 5884 5885 5888 5890 5892 5894 5895 5897 5898 5899 5900 5900 5900 5900 5899 5897 5895 5893 5891 5888 5885 5886 5883
5700 5700 5704 5713 5725 5737 5751 5763 5766 5784 5792 5799 5810 5818 5824 5831 5838 5846 5851 5855 5860 5865 5870 5872 5875 5877 5878 5881 5884 5887 5889 5892 5892 5894 5895 5896 5897 5897 5898 5897 5895 5892 5890 5888 5886 5882 5879 5879 5876
5682 5686 5692 5699 5712 5723 5734 5742 5763 5777 5781 5788 5797 5808 5817 5823 5831 5841 5846 5849 5853 5859 5864 5866 5869 5871 5875 5878 5880 5883 5886 5889 5891 5893 5893 5893 5893 5894 5894 5892 5889 5887 5885 5883 5880 5877 5873 5874 5868
5667 5670 5675 5691 5698 5710 5718 5745 5761 5761 5767 5779 5790 5798 5808 5815 5824 5833 5839 5844 5849 5853 5858 5861 5864 5867 5871 5874 5876 5880 5884 5887 5889 5890 5891 5890 5891 5891 5889 5887 5885 5883 5879 5875 5874 5869 5867 5867 5864
5649 5659 5668 5679 5688 5699 5710 5740 5735 5743 5756 5767 5778 5789 5799 5809 5818 5826 5833 5839 5843 5848 5852 5857 5860 5863 5866 5869 5873 5877 5881 5884 5885 5885 5885 5885 5885 5884 5883 5882 5880 5878 5874 5870 5867 5864 5861 5858 5857
5635 5643 5653 5663 5676 5687 5705 5715 5723 5734 5746 5760 5769 5780 5790 5801 5811 5819 5827 5833 5838 5843 5845 5849 5853 5856 5859 5863 5869 5872 5875 5876 5876 5877 5877 5876 5876 5874 5872 5871 5869 5866 5865 5860 5855 5854 5852 5850 5847
5619 5628 5639 5651 5663 5675 5690 5702 5711 5725 5738 5749 5759 5771 5783 5794 5804 5812 5820 5826 5832 5838 5840 5842 5844 5847 5852 5854 5859 5864 5867 5869 5871 5872 5872 5871 5871 5869 5867 5865 5863 5862 5857 5850 5847 5843 5839 5837 5835
5609 5619 5630 5640 5653 5666 5675 5685 5701 5714 5729 5739 5750 5763 5776 5787 5798 5806 5814 5821 5827 5832 5834 5833 5840 5846 5850 5855 5858 5861 5862 5864 5866 5867 5867 5865 5863 5862 5860 5858 5853 5850 5846 5841 5834 5831 5825 5822 5824
5606 5616 5626 5636 5646 5658 5666 5677 5685 5708 5720 5729 5742 5757 5770 5782 5793 5802 5809 5816 5822 5827 5831 5834 5838 5843 5848 5851 5853 5858 5859 5859 5861 5862 5860 5858 5856 5854 5851 5849 5845 5840 5836 5830 5826 5821 5817 5818 5817
5610 5618 5626 5630 5640 5649 5661 5679 5690 5702 5715 5725 5739 5754 5767 5777 5786 5794 5803 5810 5816 5821 5826 5830 5836 5840 5844 5848 5851 5852 5853 5855 5857 5855 5852 5851 5848 5846 5844 5840 5836 5832 5827 5821 5817 5816 5813 5812 5811
5609 5618 5623 5628 5640 5655 5661 5673 5684 5696 5705 5720 5736 5750 5763 5773 5781 5790 5798 5804 5809 5815 5819 5825 5831 5837 5840 5843 5846 5848 5849 5848 5847 5847 5846 5843 5842 5840 5836 5832 5829 5823 5818 5814 5810 5810 5807 5807 5807
5608 5618 5624 5630 5644 5653 5658 5675 5680 5690 5710 5723 5733 5744 5756 5767 5775 5784 5791 5797 5802 5808 5814 5820 5825 5831 5835 5838 5840 5842 5843 5842 5841 5839 5839 5837 5836 5832 5828 5824 5818 5816 5811 5807 5806 5805 5805 5803 5802
5613 5619 5627 5637 5646 5655 5659 5671 5679 5694 5701 5715 5726 5737 5749 5759 5769 5778 5787 5793 5798 5804 5810 5815 5820 5826 5830 5833 5835 5835 5835 5834 5834 5832 5830 5827 5826 5823 5819 5814 5813 5808 5806 5802 5800 5799 5795 5795 5795
5619 5625 5635 5644 5648 5653 5657 5666 5675 5685 5698 5710 5720 5730 5742 5752 5762 5772 5780 5788 5795 5801 5807 5811 5816 5820 5825 5827 5829 5828 5828 5828 5826 5824 5821 5817 5815 5812 5808 5804 5801 5799 5797 5796 5795 5791 5789 5785 5786
5624 5623 5632 5636 5646 5655 5659 5666 5677 5684 5695 5705 5715 5726 5736 5746 5756 5765 5773 5781 5789 5796 5803 5808 5812 5816 5818 5820 5821 5821 5821 5820 5818 5815 5811 5808 5806 5802 5798 5795 5793 5791 5790 5787 5786 5784 5781 5780 5774
5622 5630 5639 5641 5650 5659 5660 5670 5672 5681 5691 5701 5711 5721 5732 5740 5749 5759 5767 5776 5782 5790 5795 5801 5805 5808 5811 5813 5814 5814 5814 5812 5810 5807 5802 5799 5795 5792 5791 5788 5786 5785 5783 5780 5777 5775 5773 5774 5770
5624 5630 5636 5642 5648 5657 5660 5667 5669 5679 5689 5698 5708 5717 5727 5737 5746 5755 5762 5769 5776 5782 5787 5792 5796 5799 5802 5805 5807 5807 5805 5803 5801 5797 5794 5790 5785 5784 5783 5782 5781 5777 5772 5769 5770 5770 5768 5765 5761
5628 5635 5639 5647 5650 5653 5663 5664 5670 5679 5687 5696 5705 5714 5723 5732 5740 5749 5756 5763 5769 5775 5781 5785 5788 5792 5795 5798 5799 5799 5798 5796 5793 5788 5784 5780 5779 5777 5773 5771 5770 5768 5764 5766 5766 5765 5764 5759 5757